This is the latest recevied weather packets stored in our database for station/object AE0NK. If no packets are shown the sender has not sent any weather packets the latest 10 day(s).
| Time | Temp. | Humidity | Pressure | Rain* | Wind** | Luminosity | Snow |
|---|---|---|---|---|---|---|---|
| 1777842794 | 23.33° C | 38% | 1005.8 hPa | 0 mm | - | 624 W/m² | - |
| 1777842494 | 23.33° C | 39% | 1005.9 hPa | 0 mm | - | 647 W/m² | - |
| 1777842206 | 23.33° C | 38% | 1006 hPa | 0 mm | - | 635 W/m² | - |
| 1777841902 | 23.89° C | 36% | 1006.1 hPa | 0 mm | - | 664 W/m² | - |
| 1777841601 | 24.44° C | 28% | 1006.2 hPa | 0 mm | - | 698 W/m² | - |
| 1777841298 | 23.89° C | 29% | 1006.1 hPa | 0 mm | - | 77 W/m² | - |
| 1777840997 | 23.89° C | 27% | 1006.1 hPa | 0 mm | - | 722 W/m² | - |
| 1777840696 | 24.44° C | 27% | 1006.1 hPa | 0 mm | - | 738 W/m² | - |
| 1777840393 | 23.89° C | 27% | 1006.2 hPa | 0 mm | - | 722 W/m² | - |
| 1777840093 | 23.89° C | 29% | 1006.3 hPa | 0 mm | - | 747 W/m² | - |
| 1777839792 | 23.89° C | 27% | 1006.3 hPa | 0 mm | - | 768 W/m² | - |
| 1777839510 | 24.44° C | 28% | 1006.4 hPa | 0 mm | - | 779 W/m² | - |
| 1777839208 | 23.89° C | 30% | 1006.3 hPa | 0 mm | - | 775 W/m² | - |
| 1777838904 | 23.89° C | 30% | 1006.3 hPa | 0 mm | - | 821 W/m² | - |
| 1777838600 | 23.89° C | 30% | 1006.1 hPa | 0 mm | - | 846 W/m² | - |
| 1777838295 | 23.89° C | 33% | 1006.4 hPa | 0 mm | - | 817 W/m² | - |
| 1777837992 | 23.89° C | 33% | 1006.2 hPa | 0 mm | - | 260 W/m² | - |
| 1777837710 | 23.89° C | 33% | 1006.3 hPa | 0 mm | - | 677 W/m² | - |
| 1777837407 | 23.89° C | 35% | 1006.3 hPa | 0 mm | - | 842 W/m² | - |
| 1777837105 | 23.33° C | 36% | 1006.4 hPa | 0 mm | - | 877 W/m² | - |
| 1777836804 | 23.33° C | 35% | 1006.5 hPa | 0 mm | - | 798 W/m² | - |
| 1777836502 | 23.33° C | 35% | 1006.6 hPa | 0 mm | - | 842 W/m² | - |
| 1777836201 | 22.78° C | 36% | 1006.7 hPa | 0 mm | - | 789 W/m² | - |
| 1777835900 | 22.78° C | 38% | 1006.8 hPa | 0 mm | - | 844 W/m² | - |
| 1777835598 | 22.22° C | 36% | 1006.9 hPa | 0 mm | - | 847 W/m² | - |
* Rain latest hour (hover to see other rain measurements)
** Current wind speed in m/s (hover to see current wind gust speed)